Tri-Cities, TN

2:44 AM EST on December 14, 2019 (GMT -0500)
Tri-Cities Regional Tennessee / Virginia

Weather History for KTRI - October, 2019

Change the Weather History Date:

Saturday, October 26, 2019

  Actual Average Record
Temperature  
Mean Temperature 64 °F 53 °F  
Max Temperature 74 °F 66 °F 83 °F (2010)
Min Temperature 54 °F 40 °F 22 °F (2013)
Degree Days  
Heating Degree Days 1 12  
Month to date heating degree days 138 219  
Since 1 July heating degree days 138 272  
Cooling Degree Days 0 0  
Month to date cooling degree days 67 9  
Year to date cooling degree days 1452 977  
Growing Degree Days 14 (Base 50)    
Moisture  
Dew Point 56 °F    
Average Humidity 79    
Maximum Humidity 100    
Minimum Humidity 57    
Precipitation  
Precipitation 0.08 in 0.07 in 1.11 in (2018)
Month to date precipitation 4.23 1.72  
Year to date precipitation 45.84 34.16  
Snow  
Snow 0.00 in 0.00 in - ()
Month to date snowfall 0.0 0.1  
Since 1 July snowfall 0.0 0.1  
Since 1 September snowfall 0.0 0.1  
Snow Depth 0.00 in    
Sea Level Pressure  
Sea Level Pressure 29.95 in    
Wind  
Wind Speed 5 mph (ESE)    
Max Wind Speed 17 mph    
Max Gust Speed 21 mph    
Visibility 9 miles    
Events Rain    
T = Trace of Precipitation, MM = Missing Value Source: NWS Daily Summary

Daily Weather History Graph

Daily Weather History Graph

Search for Another Location

Airport or City:

Astronomy

Oct. 26, 2019 Rise Set
Actual Time 7:46 AM EDT 6:39 PM EDT
Civil Twilight 7:20 AM EDT 7:06 PM EDT
Nautical Twilight 6:50 AM EDT 7:36 PM EDT
Astronomical Twilight 6:20 AM EDT 8:06 PM EDT
Moon 5:46 AM EDT (10/26) 6:10 PM EDT (10/26)
Length of Visible Light 11h 45m
Length of Day
10h 53m
Waning Crescent, 3% of the Moon is Illuminated
Oct 26
Waning Crescent
Oct 27
New
Nov 4
First Quarter
Nov 12
Full
Nov 19
Last Quarter

Hourly Weather History & Observations

Time (EDT) Temp. Dew Point Humidity Pressure Visibility Wind Dir Wind Speed Gust Speed Precip Events Conditions
12:53 AM 54.0 °F 53.1 °F 97% 30.14 in 5.0 mi East 3.5 mph - 0.06 in   Overcast
1:53 AM 55.0 °F 53.1 °F 93% 30.12 in 9.0 mi Calm Calm - N/A   Overcast
2:53 AM 55.9 °F 54.0 °F 93% 30.09 in 10.0 mi Calm Calm - 0.00 in Rain Light Rain
3:53 AM 55.9 °F 55.0 °F 97% 30.07 in 10.0 mi Calm Calm - 0.00 in   Mostly Cloudy
4:53 AM 55.9 °F 54.0 °F 93% 30.07 in 6.0 mi Calm Calm - 0.00 in Rain Light Rain
5:53 AM 55.9 °F 55.0 °F 97% 30.06 in 6.0 mi Calm Calm - 0.01 in Rain Light Rain
6:53 AM 57.0 °F 55.0 °F 93% 30.05 in 8.0 mi Calm Calm - 0.00 in   Overcast
7:53 AM 55.9 °F 55.0 °F 97% 30.04 in 10.0 mi Calm Calm - 0.01 in   Overcast
8:53 AM 57.0 °F 55.0 °F 93% 30.03 in 10.0 mi Calm Calm - N/A   Overcast
9:53 AM 60.1 °F 57.0 °F 90% 30.02 in 10.0 mi North 3.5 mph - N/A   Overcast
10:53 AM 66.0 °F 57.9 °F 75% 29.99 in 10.0 mi Calm Calm - N/A   Mostly Cloudy
11:53 AM 71.1 °F 55.9 °F 59% 29.98 in 10.0 mi SE 9.2 mph - N/A   Mostly Cloudy
12:53 PM 73.0 °F 57.0 °F 57% 29.96 in 10.0 mi SSE 16.1 mph - N/A   Mostly Cloudy
1:53 PM 70.0 °F 57.0 °F 63% 29.93 in 10.0 mi ESE 9.2 mph - N/A   Overcast
2:53 PM 70.0 °F 55.9 °F 61% 29.91 in 10.0 mi ESE 10.4 mph - N/A   Overcast
3:53 PM 70.0 °F 55.9 °F 61% 29.88 in 10.0 mi East 11.5 mph - N/A   Overcast
4:53 PM 69.1 °F 55.9 °F 63% 29.87 in 10.0 mi ESE 6.9 mph - N/A   Overcast
5:53 PM 68.0 °F 57.0 °F 68% 29.86 in 10.0 mi ESE 4.6 mph - N/A   Overcast
6:53 PM 69.1 °F 57.0 °F 65% 29.84 in 10.0 mi SE 6.9 mph - N/A   Overcast
7:53 PM 69.1 °F 57.9 °F 68% 29.81 in 10.0 mi East 10.4 mph 18.4 mph N/A   Overcast
8:53 PM 68.0 °F 59.0 °F 73% 29.81 in 10.0 mi East 3.5 mph - 0.00 in Rain Light Rain
9:53 PM 69.1 °F 59.0 °F 70% 29.78 in 10.0 mi ESE 9.2 mph 17.3 mph 0.00 in   Overcast
10:53 PM 69.1 °F 60.1 °F 73% 29.75 in 10.0 mi East 10.4 mph - 0.00 in   Overcast
11:53 PM 69.1 °F 61.0 °F 75% 29.74 in 10.0 mi SE 4.6 mph - 0.00 in Rain Light Rain